EDT,Max TemperatureF,Mean TemperatureF,Min TemperatureF,Max Dew PointF,MeanDew PointF,Min DewpointF,Max Humidity, Mean Humidity, Min Humidity, Max Sea Level PressureIn, Mean Sea Level PressureIn, Min Sea Level PressureIn, Max VisibilityMiles, Mean VisibilityMiles, Min VisibilityMiles, Max Wind SpeedMPH, Mean Wind SpeedMPH, Max Gust SpeedMPH,PrecipitationIn, CloudCover, Events, WindDirDegrees
2013-3-1,48,42,35,39,33,24,100,76,51,29.70,29.62,29.54,10,10,9,20,9,24,0.00,6,,328
2013-3-2,39,36,32,28,25,23,75,62,55,29.71,29.68,29.64,10,10,10,14,9,22,0.00,6,,308
2013-3-3,37,34,30,24,22,21,76,63,51,29.67,29.64,29.60,10,10,10,16,11,20,0.00,7,,319
2013-3-4,41,34,28,21,19,18,69,56,43,29.79,29.70,29.65,10,10,10,24,16,32,0.00,3,,313
2013-3-5,46,37,28,33,25,19,85,63,42,30.05,29.95,29.81,10,10,10,18,11,25,0.00,3,,351
2013-3-6,42,37,32,34,31,29,93,77,61,30.02,29.94,29.88,10,9,5,32,17,48,0.00,7,Rain,49
2013-3-7,41,37,32,31,28,26,89,76,57,29.97,29.91,29.85,10,7,1,33,25,50,0.00,8,Snow,10
2013-3-8,37,34,30,31,28,22,93,85,53,30.09,29.94,29.90,10,3,0,25,16,34,0.00,7,Fog-Snow,1
2013-3-9,53,42,27,33,22,17,92,54,24,30.34,30.21,30.10,10,9,8,20,11,29,0.00,0,,18
2013-3-10,41,34,28,34,30,25,89,80,70,30.40,30.36,30.32,9,8,7,10,6,29,0.00,3,,141
2013-3-11,48,42,37,41,37,33,93,86,76,30.34,30.25,30.14,8,7,5,12,7,,0.00,7,,153
2013-3-12,50,44,39,49,46,38,100,94,83,30.14,29.87,29.72,7,4,1,30,11,40,0.40,7,Rain,175
2013-3-13,51,43,35,46,30,22,100,63,35,29.82,29.78,29.74,10,10,10,18,12,25,0.00,3,,305
2013-3-14,37,32,28,28,19,9,93,62,34,29.88,29.82,29.78,10,8,1,24,11,36,0.00,6,Snow,305
2013-3-15,41,34,27,27,16,7,65,49,38,29.92,29.81,29.70,10,10,8,20,15,33,0.00,4,,276
2013-3-16,39,34,30,27,19,6,78,55,27,29.88,29.82,29.76,10,10,9,12,9,20,0.00,6,,299
2013-3-17,39,34,27,27,11,4,79,43,24,30.30,30.08,29.89,10,10,10,16,8,28,0.00,1,,323
2013-3-18,35,28,21,28,15,1,93,57,29,30.44,30.32,30.14,10,8,2,17,10,28,0.00,4,Snow,73
2013-3-19,42,36,30,39,34,28,100,93,81,30.13,29.80,29.57,10,6,2,22,15,34,0.18,7,Rain-Snow,26
2013-3-20,43,36,30,31,22,16,92,61,35,29.83,29.79,29.72,10,10,8,22,10,33,0.00,2,,268
2013-3-21,39,34,30,28,23,18,85,66,50,29.83,29.70,29.61,10,10,8,14,7,18,0.00,7,,348
2013-3-22,43,32,26,23,15,9,65,47,36,29.81,29.72,29.65,10,10,10,17,11,24,0.00,3,,297
2013-3-23,46,38,30,23,19,13,72,48,26,29.86,29.78,29.70,10,10,10,22,11,37,0.00,3,,290
2013-3-24,48,39,30,34,24,18,86,57,36,29.88,29.80,29.70,10,10,10,14,9,22,0.00,0,,305
2013-3-25,46,38,32,36,30,24,100,74,47,29.75,29.57,29.44,10,9,6,22,10,34,0.00,5,Rain,38
2013-3-26,48,38,30,35,29,21,93,71,39,29.81,29.68,29.52,10,10,9,9,7,,0.00,5,,324
2013-3-27,53,38,26,35,25,21,92,58,33,29.88,29.83,29.78,10,10,10,17,7,25,0.00,4,,325
2013-3-28,48,42,37,37,33,28,82,70,48,30.05,29.95,29.88,10,10,10,14,9,21,0.00,7,Rain,320
2013-3-29,53,45,37,38,33,28,93,61,44,30.08,30.04,29.99,10,10,10,16,7,24,0.00,3,,290
2013-3-30,57,46,37,35,29,18,83,55,23,30.12,30.08,30.03,10,10,10,17,10,25,0.00,2,,291
2013-3-31,50,38,28,46,39,28,100,90,66,30.14,29.96,29.65,10,7,2,21,5,31,0.07,4,Rain,121